Regional Weather Roundup
Issued by NWS

Home | Current Version | Previous Version | Text Only | Print | Product List | Glossary Off
Versions: 1 2 3 4 5 6 7 8 9 10 11 12 13 14 15 16 17 18 19 20 21 22 23 24 25 26 27 28 29 30 31 32 33 34 35 36 37 38 39 40 41 42 43 44 45 46 47 48 49 50

000
ASUS43 KMPX 120701
RWRMN
WEATHER ROUNDUP FOR MINNESOTA
NATIONAL WEATHER SERVICE TWIN CITIES/CHANHASSEN MN
200 AM CDT SAT JUL 12 2014


NOTE: "FAIR" INDICATES FEW OR NO CLOUDS BELOW 12,000 FEET WITH NO
SIGNIFICANT WEATHER AND/OR OBSTRUCTIONS TO VISIBILITY. N/A MEANS
CURRENT SKY AND/OR WEATHER CONDITIONS ARE NOT AVAILABLE.

MNZ060>063-068>070-120800-
   Twin Cities Metro

CITY           SKY/WX    TMP DP  RH WIND       PRES   REMARKS
TWIN CITIES    MOCLDY    73  69  87 S3        29.99F
ST PAUL        PTCLDY    70  68  93 S5        30.00S
CRYSTAL        PTCLDY    73  68  84 SE3       29.98S
BLAINE         PTCLDY    72  72 100 S3        29.99F
LAKEVILLE      MOCLDY    68  66  94 CALM      30.00S
EDEN PRAIRIE   MOCLDY    71  68  90 S3        29.98F
SOUTH ST PAUL  PTCLDY    70  68  92 CALM      30.00S
LAKE ELMO      FAIR      68  68 100 S3        30.01S
$$
MNZ001>005-007-008-013>017-022>024-027-028-120800-
   Northwest Minnesota

CITY           SKY/WX    TMP DP  RH WIND       PRES   REMARKS
BEMIDJI        PTCLDY    60  53  76 W5        30.02S
HALLOCK        CLEAR     61  55  82 CALM      30.02S
ROSEAU         CLEAR     61  55  82 W3        30.01S
WARROAD        CLEAR     61  55  82 W3        30.01S
THIEF RVR FALL PTCLDY    61  55  82 NW3       30.02F
CROOKSTON      PTCLDY    61  55  82 CALM      30.03S
FOSSTON        PTCLDY    57  52  82 CALM      30.03F
MOORHEAD       MOCLDY    64  63  94 N5        30.04S
PARK RAPIDS    MOCLDY    64  57  78 NW3       30.03S
$$
MNZ006-009>011-018-025>026-120800-
   North Central Minnesota

CITY           SKY/WX    TMP DP  RH WIND       PRES   REMARKS
BAUDETTE       PTCLDY    60  55  83 W3        30.01S
FLAG ISLAND    CLEAR     64  55  72 W7        29.98S HAZE
INTL FALLS     CLEAR     54  52  93 CALM      29.99R
BIG FORK       CLEAR     57  54  88 NW1       30.01S
LONGVILLE      PTCLDY    61  61 100 CALM      30.01S
GRAND RAPIDS   PTCLDY    61  55  82 NW3       30.00F
CRANE LAKE     CLEAR     54  54 100 CALM      30.00R FOG
ORR            CLEAR     57  55  94 CALM      29.97S
COOK           CLEAR     57  55  94 CALM      29.99F
$$
MNZ012-019>021-037-120800-
   Northeast Minnesota

CITY           SKY/WX    TMP DP  RH WIND       PRES   REMARKS
DULUTH         FOG       67  66  97 W8        29.99S VSB 1/2
ELY            CLEAR     59  57  94 CALM      29.98S
HIBBING        CLEAR     55  53  93 CALM      29.98F FOG
EVELETH        FOG       54  54 100 CALM      30.00S VSB 1/4
DULUTH HARBOR  CLEAR     70  66  88 SW10      29.97S
TWO HARBORS    HAZE      63  57  82 CALM      29.95F VSB 1/4
SILVER BAY     CLEAR     59  57  94 CALM      29.94F FOG
GRAND MARAIS     N/A     47  47 100 SW6       29.93S
G MARAIS ARPRT   N/A     63  59  88 W3        29.98S FOG
$$
MNZ029>031-032-039>041-046>048-054>057-064-120800-
   West Central Minnesota

CITY           SKY/WX    TMP DP  RH WIND       PRES   REMARKS
FERGUS FALLS   MOCLDY    70  55  60 N3        30.02S
WHEATON        CLOUDY    70  55  60 N8        30.04S
MORRIS         MOCLDY    72  68  88 N6        30.00S
ALEXANDRIA     MOCLDY    70  61  73 N7        30.03F
WADENA         MOCLDY    64  59  82 NW5       30.02S
GLENWOOD       MOCLDY    70  66  88 N3        30.02F
APPLETON       MOCLDY    73  68  83 N8        29.99S
BENSON         MOCLDY    73  70  88 NE5       29.99S
ORTONVILLE     MOCLDY    73  64  73 N9        30.00S
MADISON        MOCLDY    73  70  88 S3        29.99S
WILLMAR        FAIR      72  70  94 CALM      30.00F FOG
$$
MNZ033>034-036-042>043-049>051-058-059-120800-
   Central Minnesota

CITY           SKY/WX    TMP DP  RH WIND       PRES   REMARKS
ST CLOUD       FOG       69  67  93 CALM      29.99S VSB 1/4
SAUK CENTRE    FAIR      68  67  98 CALM      30.02S FOG
PAYNESVILLE    PTCLDY    68  68 100 NW3       30.00F FOG
AITKIN         HAZE      63  55  77 CALM      29.99F VSB 1/4
PINE RIVER     PTCLDY    61  61 100 CALM      30.05R
BRAINERD       MOCLDY    68  62  81 CALM      30.01S
STAPLES        MOCLDY    64  61  88 NW5       30.02S
LONG PRAIRIE   FAIR      64  64 100 CALM      30.02S
LITTLE FALLS   FOG       64  63  94 CALM      30.00F VSB 1/4
LITCHFIELD     PTCLDY    72  72 100 CALM      30.00S FOG
BUFFALO        PTCLDY    71  68  91 CALM      29.99F
MAPLE LAKE     FOG       71  70  98 CALM      30.00F VSB 3/4
$$
MNZ037-044-045-052-053-120800-
   East Central Minnesota

CITY           SKY/WX    TMP DP  RH WIND       PRES   REMARKS
PRINCETON      FOG       70  68  94 CALM      29.99F VSB 1
MORA           MOCLDY    70  68  94 CALM      30.01F FOG
CAMBRIDGE      MOCLDY    72  64  78 CALM      29.98S HAZE
RUSH CITY      MOCLDY    67  65  94 CALM      30.00S
MOOSE LAKE     PTCLDY    59  59 100 CALM      29.98F FOG
HINCKLEY       FAIR      63  63 100 CALM      29.99F
CLOQUET        CLEAR     64  63  94 SW6       29.99F
MCGREGOR       CLOUDY    63  61  94 CALM      30.00F VSB 1/4
$$
MNZ071>073-080-081-089-090-097-098-120800-
   Southwest Minnesota

CITY           SKY/WX    TMP DP  RH WIND       PRES   REMARKS
MONTEVIDEO     MOCLDY    73  70  88 CALM      29.99S
GRANITE FALLS  MOCLDY    73  71  91 CALM      29.99F
CANBY          CLOUDY    73  70  89 NW8       30.00S
MARSHALL       CLOUDY    73  70  88 SW3       29.98F
REDWOOD FALLS  MOCLDY    74  72  93 SW3       29.98F
OLIVIA         MOCLDY    72  68  88 SE3       29.98F
PIPESTONE      CLOUDY    72  70  94 NE3       30.02S FOG
WINDOM         MOCLDY    72  68  88 CALM      30.01F FOG
WORTHINGTON    CLOUDY    72  70  94 CALM      30.02F
JACKSON        MOCLDY    70  66  88 CALM      30.01F FOG
TRACY          CLOUDY    73  71  92 SW5       30.00F FOG
SLAYTON        CLOUDY    71  70  96 CALM      30.02F FOG
$$
MNZ065>067-074>077-082>085-091>093-120800-
   South Central Minnesota

CITY           SKY/WX    TMP DP  RH WIND       PRES   REMARKS
MANKATO        MOCLDY    70  66  88 S7        30.00F
NEW ULM        MOCLDY    72  72 100 CALM      29.98F FOG
ST JAMES       MOCLDY    70  70 100 CALM      30.01S FOG
FAIRMONT       PTCLDY    70  64  83 CALM      30.00F
GLENCOE        MOCLDY    71  68  89 SE3       29.98F
FARIBAULT      MOCLDY    72  64  78 S5        30.01F
OWATONNA       MOCLDY    70  66  88 CALM      30.02S
WASECA         CLOUDY    70  64  83 S3        30.03F
ALBERT LEA     PTCLDY    70  66  88 CALM      30.02F FOG
$$
MNZ078>079-086>088-094>096-120800-
   Southeast Minnesota

CITY           SKY/WX    TMP DP  RH WIND       PRES   REMARKS
ROCHESTER      CLOUDY    68  66  93 S6        30.04F FOG
RED WING       CLOUDY    72  66  83 CALM      30.00F
STANTON        PTCLDY    69  66  88 CALM      29.99F
DODGE CENTER   PTCLDY    70  66  88 SW8       30.03F
WINONA         CLOUDY    70  66  88 CALM      30.02F
AUSTIN         CLOUDY    70  66  88 CALM      30.02F FOG
PRESTON        PTCLDY    67  66  95 S5        30.04F FOG
$$
ABBREVIATIONS USED IN REMARKS
   TC - TEMPERATURES IN CELSIUS
  WCI - WIND CHILL INDEX
   HX - HEAT INDEX
  VSB - VISIBILITY
$$



USA.gov is the U.S. government's official web portal to all federal, state and local government web resources and services.